M I D A S
Marine Information and Data Acquisition System
Tripno 1885 of the Zeeleeuw from 2010-05-21 06:58:12 to 2010-05-21 13:27:16
Back to CruiseResearch ActivitiesStationsMapUnderway DataData graphs

EquipmentUnitsComments
TimeDGPSUTC
LatitudeDGPSDM.mWGS84
LongitudeDGPSDM.mWGS84
SpeedMeteo Stationm/sRelative wind speed
DirectionMeteo StationdegRelative wind direction
TemperatureMeteo Stationdeg CelciusAir temperature
PressureMeteo StationPaAtmospheric pressure
HumidityMeteo Station%Relative humidity
Missing or incorrect values are displayed as -999
Metereological data collected by the RV Zeeleeuw from 2010-05-21 06:52:44 to 2010-05-21 13:36:57
                                                                                    Next 1000 lines
Time Latitude Longitude Speed Direction Temperature Pressure Humidity
2010-05-21 06:52:54 51°13.662 2°55.958 0.8 281 14.3 103070 39
2010-05-21 06:52:59 51°13.662 2°55.956 1.6 270 14.3 103070 39
2010-05-21 06:53:04 51°13.662 2°55.953 1.8 80 14.3 103070 39
2010-05-21 06:53:10 51°13.663 2°55.948 1.9 40 14.3 103070 39
2010-05-21 06:53:14 51°13.664 2°55.944 2 82 14.3 103070 39
2010-05-21 06:53:20 51°13.665 2°55.938 1.7 33 14.3 103070 39
2010-05-21 06:53:26 51°13.667 2°55.931 2 74 14.2 103070 38
2010-05-21 06:53:31 51°13.669 2°55.924 2 270 14.2 103070 38
2010-05-21 06:53:37 51°13.671 2°55.916 1.9 75 14.2 103070 42
2010-05-21 06:53:43 51°13.673 2°55.906 1.9 38 14.2 103070 42
2010-05-21 06:53:48 51°13.675 2°55.898 2.6 81 14.2 103070 41
2010-05-21 06:53:53 51°13.677 2°55.889 2.7 40 14.2 103070 41
2010-05-21 06:53:58 51°13.679 2°55.881 2.8 79 14.2 103070 37
2010-05-21 06:54:03 51°13.681 2°55.872 2.3 34 14.2 103070 37
2010-05-21 06:54:08 51°13.683 2°55.863 2.5 77 14.2 103070 38
2010-05-21 06:54:13 51°13.685 2°55.854 2.8 34 14.2 103070 38
2010-05-21 06:54:17 51°13.687 2°55.847 2.4 79 14.1 103070 41
2010-05-21 06:54:22 51°13.689 2°55.839 2.9 34 14.1 103070 41
2010-05-21 06:54:28 51°13.691 2°55.829 2.5 80 14.1 103070 37
2010-05-21 06:54:33 51°13.692 2°55.82 2.3 30 14.1 103070 37
2010-05-21 06:54:37 51°13.694 2°55.814 2.6 288 14.1 103070 40
2010-05-21 06:54:42 51°13.695 2°55.806 2.4 270 14.1 103070 40
2010-05-21 06:54:47 51°13.697 2°55.798 1.7 285 14.1 103070 38
2010-05-21 06:54:53 51°13.698 2°55.789 1.4 265 14.1 103070 38
2010-05-21 06:54:57 51°13.699 2°55.783 1.6 278 14 103070 40
2010-05-21 06:55:02 51°13.701 2°55.776 1.3 265 14 103070 40
2010-05-21 06:55:07 51°13.702 2°55.769 3.1 287 14 103070 41
2010-05-21 06:55:12 51°13.703 2°55.762 2.9 268 14 103070 41
2010-05-21 06:55:18 51°13.704 2°55.754 2.1 278 14 103070 41
2010-05-21 06:55:22 51°13.704 2°55.748 2.1 263 14 103070 41
2010-05-21 06:55:27 51°13.705 2°55.742 2.8 84 14 103070 41
2010-05-21 06:55:32 51°13.705 2°55.736 2.4 267 14 103070 41
2010-05-21 06:55:37 51°13.706 2°55.732 1.9 283 14 103070 37
2010-05-21 06:55:42 51°13.706 2°55.73 1.9 265 14 103070 37
2010-05-21 06:55:46 51°13.706 2°55.728 2.8 285 13.9 103070 37
2010-05-21 06:55:51 51°13.706 2°55.726 2.6 260 13.9 103070 37
2010-05-21 06:55:56 51°13.707 2°55.725 2.2 278 13.9 103070 38
2010-05-21 06:56:01 51°13.707 2°55.725 2.6 248 13.9 103070 41
2010-05-21 06:56:06 51°13.707 2°55.724 2.8 278 13.9 103070 41
2010-05-21 06:56:10 51°13.707 2°55.724 3 242 13.9 103070 41
2010-05-21 06:56:15 51°13.708 2°55.725 2.7 279 13.9 103070 37
2010-05-21 06:56:20 51°13.708 2°55.725 2.7 31 13.9 103070 37
2010-05-21 06:56:26 51°13.709 2°55.726 2.8 284 13.9 103070 37
2010-05-21 06:56:30 51°13.71 2°55.727 2.6 36 13.9 103070 37
2010-05-21 06:56:35 51°13.711 2°55.728 3.9 285 13.9 103070 40
2010-05-21 06:56:40 51°13.713 2°55.729 2.8 38 13.9 103070 40
2010-05-21 06:56:44 51°13.714 2°55.73 2.9 286 13.9 103070 37
2010-05-21 06:56:50 51°13.716 2°55.731 2.9 33 13.9 103070 37
2010-05-21 06:56:54 51°13.718 2°55.732 2.8 283 13.9 103070 38
2010-05-21 06:56:59 51°13.719 2°55.732 2.8 320 13.9 103070 38
2010-05-21 06:57:04 51°13.719 2°55.732 1.9 285 13.9 103070 37
2010-05-21 06:57:09 51°13.718 2°55.732 1.8 317 13.9 103070 37
2010-05-21 06:57:14 51°13.717 2°55.731 1.9 276 13.9 103070 37
2010-05-21 06:57:19 51°13.715 2°55.73 1.9 318 13.9 103070 37
2010-05-21 06:57:23 51°13.713 2°55.729 1.6 277 13.9 103070 41
2010-05-21 06:57:29 51°13.71 2°55.727 1.6 319 13.9 103070 41
2010-05-21 06:57:35 51°13.706 2°55.726 1.5 277 13.9 103070 38
2010-05-21 06:57:41 51°13.704 2°55.725 1.8 316 13.9 103070 38
2010-05-21 06:57:46 51°13.702 2°55.724 2 277 13.8 103070 38
2010-05-21 06:57:52 51°13.701 2°55.724 2.5 319 13.8 103070 38
2010-05-21 06:57:57 51°13.702 2°55.724 2 321 13.8 103070 42
2010-05-21 06:58:02 51°13.703 2°55.723 2.5 328 13.8 103070 42
2010-05-21 06:58:07 51°13.704 2°55.723 3 280 13.8 103070 37
2010-05-21 06:58:12 51°13.706 2°55.723 3.1 334 13.8 103070 37
2010-05-21 06:58:17 51°13.709 2°55.721 3.5 283 13.8 103070 37
2010-05-21 06:58:22 51°13.713 2°55.719 3.4 338 13.8 103070 37
2010-05-21 06:58:28 51°13.718 2°55.716 3.9 279 13.8 103070 38
2010-05-21 06:58:32 51°13.722 2°55.713 3.8 340 13.8 103070 38
2010-05-21 06:58:37 51°13.728 2°55.71 4.6 278 13.7 103070 37
2010-05-21 06:58:42 51°13.734 2°55.705 4.5 338 13.7 103070 37
2010-05-21 06:58:46 51°13.74 2°55.701 4.7 285 13.7 103070 39
2010-05-21 06:58:51 51°13.747 2°55.696 4.6 339 13.6 103070 37
2010-05-21 06:58:56 51°13.755 2°55.691 4.4 278 13.6 103070 37
2010-05-21 06:59:01 51°13.764 2°55.684 4.8 336 13.6 103070 37
2010-05-21 06:59:06 51°13.773 2°55.678 4.7 283 13.6 103070 37
2010-05-21 06:59:11 51°13.782 2°55.671 5.5 339 13.6 103070 37
2010-05-21 06:59:15 51°13.789 2°55.665 5.2 278 13.5 103070 39
2010-05-21 06:59:21 51°13.801 2°55.656 4.9 336 13.5 103070 39
2010-05-21 06:59:25 51°13.809 2°55.649 5.5 283 13.5 103070 40
2010-05-21 06:59:30 51°13.819 2°55.641 5.2 338 13.5 103070 40
2010-05-21 06:59:35 51°13.83 2°55.633 5.6 277 13.5 103070 39
2010-05-21 06:59:40 51°13.84 2°55.624 5.7 340 13.5 103070 39
2010-05-21 06:59:45 51°13.851 2°55.615 5.7 282 13.4 103060 41
2010-05-21 06:59:50 51°13.861 2°55.607 5.2 341 13.4 103060 41
2010-05-21 06:59:54 51°13.87 2°55.601 6 283 13.4 103070 37
2010-05-21 06:59:59 51°13.882 2°55.593 5.5 339 13.4 103070 37
2010-05-21 07:00:04 51°13.893 2°55.585 5.6 282 13.4 103070 38
2010-05-21 07:00:09 51°13.905 2°55.578 5.9 336 13.4 103070 38
2010-05-21 07:00:14 51°13.916 2°55.57 5.8 282 13.3 103060 37
2010-05-21 07:00:19 51°13.928 2°55.563 5.3 339 13.3 103060 37
2010-05-21 07:00:24 51°13.939 2°55.555 5.5 284 13.3 103060 40
2010-05-21 07:00:29 51°13.951 2°55.548 6.1 338 13.3 103060 40
2010-05-21 07:00:34 51°13.963 2°55.541 5.9 277 13.2 103070 40
2010-05-21 07:00:38 51°13.972 2°55.536 5.9 340 13.2 103070 40
2010-05-21 07:00:44 51°13.986 2°55.527 6.1 277 13.2 103070 40
2010-05-21 07:00:49 51°13.998 2°55.519 5.8 338 13.2 103070 40
2010-05-21 07:00:54 51°14.01 2°55.512 5.5 285 13.2 103070 37
2010-05-21 07:00:58 51°14.019 2°55.506 5.2 340 13.2 103070 37
2010-05-21 07:01:04 51°14.034 2°55.497 5.2 284 13.1 103070 38
2010-05-21 07:01:09 51°14.045 2°55.489 5.4 340 13.1 103070 38
2010-05-21 07:01:14 51°14.057 2°55.481 5.8 279 13.1 103070 38
2010-05-21 07:01:19 51°14.068 2°55.472 5.6 340 13.1 103070 38
2010-05-21 07:01:23 51°14.078 2°55.465 5.2 278 13.1 103060 40
2010-05-21 07:01:29 51°14.091 2°55.455 5.7 339 13.1 103060 40
2010-05-21 07:01:34 51°14.103 2°55.446 6.3 283 13 103070 38
2010-05-21 07:01:39 51°14.114 2°55.436 5.5 340 13 103070 38
2010-05-21 07:01:44 51°14.125 2°55.426 5.6 280 13 103070 37
2010-05-21 07:01:49 51°14.136 2°55.416 5.6 340 13 103070 37
2010-05-21 07:01:54 51°14.148 2°55.406 5.2 285 13 103070 39
2010-05-21 07:01:58 51°14.157 2°55.398 4.9 340 13 103070 39
2010-05-21 07:02:04 51°14.171 2°55.386 5.9 283 13 103070 38
2010-05-21 07:02:09 51°14.183 2°55.376 5.8 339 13 103070 38
2010-05-21 07:02:14 51°14.195 2°55.366 5.6 282 13 103070 39
2010-05-21 07:02:19 51°14.208 2°55.356 5.8 341 13 103070 39
2010-05-21 07:02:24 51°14.221 2°55.346 5.8 280 12.9 103070 38
2010-05-21 07:02:29 51°14.234 2°55.336 5.7 339 12.9 103070 38
2010-05-21 07:02:34 51°14.247 2°55.326 6.4 283 12.9 103070 39
2010-05-21 07:02:39 51°14.261 2°55.316 5.9 341 12.9 103070 39
2010-05-21 07:02:44 51°14.274 2°55.306 6.3 283 12.9 103070 37
2010-05-21 07:02:49 51°14.287 2°55.294 5.9 342 12.9 103070 37
2010-05-21 07:02:54 51°14.3 2°55.282 6.2 282 12.9 103070 40
2010-05-21 07:02:58 51°14.31 2°55.271 5.6 342 12.9 103070 40
2010-05-21 07:03:04 51°14.325 2°55.255 6 279 12.9 103060 38
2010-05-21 07:03:09 51°14.338 2°55.241 5.8 343 12.9 103060 38
2010-05-21 07:03:14 51°14.351 2°55.225 6 284 12.8 103070 38
2010-05-21 07:03:18 51°14.36 2°55.212 6.1 344 12.8 103070 38
2010-05-21 07:03:23 51°14.372 2°55.196 5.8 284 12.8 103070 40
2010-05-21 07:03:29 51°14.387 2°55.176 5.8 342 12.8 103070 40
2010-05-21 07:03:34 51°14.399 2°55.159 6.2 285 12.8 103060 38
2010-05-21 07:03:38 51°14.41 2°55.146 6.4 342 12.8 103060 38
2010-05-21 07:03:44 51°14.425 2°55.127 6.2 284 12.8 103070 38
2010-05-21 07:03:49 51°14.439 2°55.112 6 340 12.8 103070 38
2010-05-21 07:03:54 51°14.452 2°55.097 6.7 278 12.7 103070 38
2010-05-21 07:03:58 51°14.463 2°55.084 6.7 341 12.7 103070 38
2010-05-21 07:04:04 51°14.48 2°55.066 6.3 284 12.7 103060 38
2010-05-21 07:04:09 51°14.494 2°55.051 7.1 342 12.7 103060 38
2010-05-21 07:04:14 51°14.509 2°55.037 7.4 285 12.7 103060 40
2010-05-21 07:04:18 51°14.521 2°55.025 7 341 12.7 103060 40
2010-05-21 07:04:24 51°14.539 2°55.008 7 284 12.7 103060 38
2010-05-21 07:04:29 51°14.555 2°54.993 7.5 341 12.7 103060 38
2010-05-21 07:04:34 51°14.571 2°54.98 7.3 282 12.6 103060 38
2010-05-21 07:04:39 51°14.587 2°54.967 6.9 343 12.6 103060 38
2010-05-21 07:04:44 51°14.603 2°54.952 7.8 280 12.6 103060 39
2010-05-21 07:04:49 51°14.619 2°54.937 6.9 345 12.6 103060 39
2010-05-21 07:04:54 51°14.634 2°54.921 7.4 282 12.6 103060 40
2010-05-21 07:04:59 51°14.649 2°54.904 6.9 343 12.6 103060 40
2010-05-21 07:05:04 51°14.665 2°54.888 7.7 280 12.6 103060 40
2010-05-21 07:05:09 51°14.68 2°54.871 7.4 345 12.6 103060 40
2010-05-21 07:05:14 51°14.696 2°54.855 7.5 281 12.5 103070 40
2010-05-21 07:05:18 51°14.708 2°54.841 7.6 344 12.5 103070 40
2010-05-21 07:05:24 51°14.726 2°54.821 7.1 283 12.5 103070 38
2010-05-21 07:05:29 51°14.742 2°54.804 7.6 343 12.5 103070 38
2010-05-21 07:05:34 51°14.757 2°54.788 7.1 279 12.5 103060 38
2010-05-21 07:05:39 51°14.773 2°54.772 7.5 343 12.5 103060 38
2010-05-21 07:05:43 51°14.786 2°54.76 8 279 12.4 103060 38
2010-05-21 07:05:49 51°14.805 2°54.742 7.9 344 12.4 103070 38
2010-05-21 07:05:54 51°14.822 2°54.728 7.8 283 12.4 103070 38
2010-05-21 07:05:58 51°14.835 2°54.716 7.7 345 12.4 103070 38
2010-05-21 07:06:04 51°14.855 2°54.698 7.3 283 12.4 103070 41
2010-05-21 07:06:09 51°14.871 2°54.683 7.3 343 12.4 103060 38
2010-05-21 07:06:14 51°14.888 2°54.668 7.2 279 12.4 103060 38
2010-05-21 07:06:18 51°14.901 2°54.656 7.8 343 12.4 103060 38
2010-05-21 07:06:24 51°14.92 2°54.639 7.3 281 12.3 103070 40
2010-05-21 07:06:29 51°14.936 2°54.624 7.5 344 12.3 103070 40
2010-05-21 07:06:34 51°14.953 2°54.609 7.3 283 12.3 103070 39
2010-05-21 07:06:39 51°14.969 2°54.593 7.7 344 12.3 103060 39
2010-05-21 07:06:44 51°14.985 2°54.577 7.1 280 12.3 103060 39
2010-05-21 07:06:49 51°15 2°54.562 7.1 344 12.3 103060 39
2010-05-21 07:06:54 51°15.017 2°54.547 7.3 283 12.3 103070 38
2010-05-21 07:06:59 51°15.033 2°54.532 7.1 344 12.3 103070 38
2010-05-21 07:07:04 51°15.049 2°54.517 6.8 283 12.3 103070 38
2010-05-21 07:07:09 51°15.066 2°54.502 7.4 344 12.3 103070 38
2010-05-21 07:07:14 51°15.083 2°54.488 8 282 12.3 103060 39
2010-05-21 07:07:18 51°15.096 2°54.476 7.7 344 12.3 103060 39
2010-05-21 07:07:24 51°15.115 2°54.458 7.7 278 12.3 103070 40
2010-05-21 07:07:29 51°15.131 2°54.442 7.2 343 12.3 103070 40
2010-05-21 07:07:34 51°15.148 2°54.427 7.4 284 12.3 103070 39
2010-05-21 07:07:38 51°15.161 2°54.414 7 343 12.3 103070 39
2010-05-21 07:07:44 51°15.18 2°54.394 7 281 12.2 103070 40
2010-05-21 07:07:49 51°15.195 2°54.377 6.6 344 12.2 103070 40
2010-05-21 07:07:54 51°15.21 2°54.36 7.2 283 12.2 103070 40
2010-05-21 07:07:58 51°15.222 2°54.345 6.7 344 12.2 103070 40
2010-05-21 07:08:03 51°15.237 2°54.327 7.1 281 12.2 103070 40
2010-05-21 07:08:09 51°15.255 2°54.304 6.9 345 12.2 103070 40
2010-05-21 07:08:14 51°15.269 2°54.285 6.9 285 12.2 103070 39
2010-05-21 07:08:19 51°15.284 2°54.266 6.4 344 12.2 103070 39
2010-05-21 07:08:23 51°15.295 2°54.25 6.4 278 12.2 103070 38
2010-05-21 07:08:29 51°15.312 2°54.227 6.6 345 12.2 103070 38
2010-05-21 07:08:34 51°15.326 2°54.207 6.8 285 12.2 103070 40
2010-05-21 07:08:38 51°15.337 2°54.191 6.8 343 12.2 103070 40
2010-05-21 07:08:44 51°15.354 2°54.166 6.6 284 12.2 103070 41
2010-05-21 07:08:49 51°15.367 2°54.146 6.8 344 12.2 103070 41
2010-05-21 07:08:54 51°15.381 2°54.126 7.2 282 12.2 103070 38
2010-05-21 07:08:58 51°15.393 2°54.111 7.1 343 12.2 103070 38
2010-05-21 07:09:04 51°15.411 2°54.089 7.4 281 12.2 103070 39
2010-05-21 07:09:09 51°15.426 2°54.071 7.2 344 12.2 103070 39
2010-05-21 07:09:14 51°15.441 2°54.053 7.3 284 12.2 103070 38
2010-05-21 07:09:18 51°15.453 2°54.039 7.2 343 12.2 103070 38
2010-05-21 07:09:24 51°15.472 2°54.018 7 278 12.1 103070 39
2010-05-21 07:09:29 51°15.487 2°54 7.5 344 12.1 103070 39
2010-05-21 07:09:34 51°15.503 2°53.983 7.2 279 12.1 103070 39
2010-05-21 07:09:38 51°15.515 2°53.969 7.7 343 12.1 103070 39
2010-05-21 07:09:44 51°15.533 2°53.947 7.5 282 12.1 103070 39
2010-05-21 07:09:49 51°15.548 2°53.929 7.2 343 12.1 103070 39
2010-05-21 07:09:54 51°15.562 2°53.91 7.2 283 12.1 103070 37
2010-05-21 07:09:58 51°15.574 2°53.895 7.3 345 12.1 103070 37
2010-05-21 07:10:04 51°15.591 2°53.872 7.5 278 12.1 103070 38
2010-05-21 07:10:09 51°15.606 2°53.854 7.3 344 12.1 103070 38
2010-05-21 07:10:14 51°15.62 2°53.835 6.6 283 12.1 103070 40
2010-05-21 07:10:18 51°15.632 2°53.82 7 344 12.1 103070 40
2010-05-21 07:10:24 51°15.649 2°53.797 7 279 12.1 103070 39
2010-05-21 07:10:29 51°15.664 2°53.778 7.3 345 12.1 103070 39
2010-05-21 07:10:34 51°15.679 2°53.76 7.2 279 12.1 103070 41
2010-05-21 07:10:39 51°15.693 2°53.741 7.3 344 12.1 103070 41
2010-05-21 07:10:44 51°15.708 2°53.722 7.4 283 12.1 103070 38
2010-05-21 07:10:49 51°15.722 2°53.704 7.6 344 12.1 103070 38
2010-05-21 07:10:54 51°15.737 2°53.685 7.2 279 12.1 103070 41
2010-05-21 07:10:59 51°15.751 2°53.667 7.5 344 12.1 103070 41
2010-05-21 07:11:04 51°15.766 2°53.648 7.3 285 12.1 103070 39
2010-05-21 07:11:09 51°15.781 2°53.63 7.2 344 12.1 103070 39
2010-05-21 07:11:14 51°15.795 2°53.611 7.3 283 12.1 103070 38
2010-05-21 07:11:18 51°15.807 2°53.597 7.6 344 12.1 103070 38
2010-05-21 07:11:24 51°15.824 2°53.574 6.6 346 12.1 103070 39
2010-05-21 07:11:29 51°15.839 2°53.556 6.7 343 12.1 103070 39
2010-05-21 07:11:34 51°15.853 2°53.538 6.7 282 12 103070 38
2010-05-21 07:11:38 51°15.865 2°53.523 6.8 344 12 103070 38
2010-05-21 07:11:44 51°15.882 2°53.501 7 283 12 103070 40
2010-05-21 07:11:49 51°15.896 2°53.483 6.8 345 12 103070 40
2010-05-21 07:11:54 51°15.911 2°53.465 7 282 12 103070 41
2010-05-21 07:11:58 51°15.922 2°53.45 7.4 344 12 103070 41
2010-05-21 07:12:04 51°15.94 2°53.428 6.7 280 12 103070 38
2010-05-21 07:12:09 51°15.954 2°53.41 6.5 344 12 103070 38
2010-05-21 07:12:14 51°15.969 2°53.392 7.1 284 12 103070 40
2010-05-21 07:12:19 51°15.983 2°53.374 7.3 345 12 103070 40
2010-05-21 07:12:23 51°15.995 2°53.36 6.8 281 12 103080 38
2010-05-21 07:12:29 51°16.012 2°53.338 7.3 345 12 103080 38
2010-05-21 07:12:34 51°16.027 2°53.321 6.6 283 12 103080 38
2010-05-21 07:12:38 51°16.039 2°53.306 6.6 343 12 103080 38
2010-05-21 07:12:44 51°16.056 2°53.285 6.6 280 12 103080 41
2010-05-21 07:12:49 51°16.071 2°53.267 7.1 344 12 103080 41
2010-05-21 07:12:54 51°16.086 2°53.249 7 283 12 103080 39
2010-05-21 07:12:59 51°16.101 2°53.232 6.9 344 12 103080 39
2010-05-21 07:13:04 51°16.115 2°53.214 7.3 283 12 103080 40
2010-05-21 07:13:09 51°16.131 2°53.197 6.8 343 12 103080 40
2010-05-21 07:13:14 51°16.146 2°53.18 8 280 11.9 103080 38
2010-05-21 07:13:19 51°16.161 2°53.164 6.9 344 11.9 103080 38
2010-05-21 07:13:24 51°16.177 2°53.148 7.7 283 12 103080 40
2010-05-21 07:13:29 51°16.193 2°53.133 7.3 343 12 103080 40
2010-05-21 07:13:34 51°16.209 2°53.117 7.4 280 12 103080 39
2010-05-21 07:13:39 51°16.225 2°53.102 6.9 341 12 103080 39
2010-05-21 07:13:43 51°16.238 2°53.089 7.3 283 12 103070 38
2010-05-21 07:13:49 51°16.257 2°53.072 7.4 342 12 103070 38
2010-05-21 07:13:54 51°16.274 2°53.057 7.3 283 12 103080 38
2010-05-21 07:13:59 51°16.29 2°53.042 6.8 340 12 103080 38
2010-05-21 07:14:04 51°16.306 2°53.026 7 285 12 103080 39
2010-05-21 07:14:09 51°16.323 2°53.011 6.7 342 12 103080 39
2010-05-21 07:14:14 51°16.339 2°52.996 6.5 282 12 103070 38
2010-05-21 07:14:18 51°16.352 2°52.984 6.4 342 12 103070 38
2010-05-21 07:14:23 51°16.368 2°52.969 7.2 279 12 103080 39
2010-05-21 07:14:29 51°16.388 2°52.952 7.3 344 12 103070 38
2010-05-21 07:14:34 51°16.404 2°52.937 7 283 12 103070 38
2010-05-21 07:14:38 51°16.418 2°52.926 6.9 341 12 103070 38
2010-05-21 07:14:43 51°16.434 2°52.911 7.6 283 12 103080 41
2010-05-21 07:14:49 51°16.454 2°52.894 7.8 342 12 103080 41
2010-05-21 07:14:54 51°16.471 2°52.879 7.4 281 12 103080 41
2010-05-21 07:14:59 51°16.488 2°52.865 7.8 343 12 103080 41
2010-05-21 07:15:03 51°16.501 2°52.854 7.7 283 12 103080 38
2010-05-21 07:15:09 51°16.521 2°52.837 7.8 343 12 103080 38
2010-05-21 07:15:14 51°16.538 2°52.822 7.8 283 12 103070 37
2010-05-21 07:15:18 51°16.551 2°52.811 7.9 343 12 103070 37
2010-05-21 07:15:24 51°16.571 2°52.794 7.6 284 12 103080 38
2010-05-21 07:15:29 51°16.588 2°52.78 7.9 344 12 103080 38
2010-05-21 07:15:34 51°16.605 2°52.766 7.2 278 12 103080 40
2010-05-21 07:15:39 51°16.622 2°52.752 8 343 12 103080 39
2010-05-21 07:15:44 51°16.639 2°52.739 8 278 12 103080 39
2010-05-21 07:15:49 51°16.656 2°52.726 7.6 342 12 103080 39
2010-05-21 07:15:54 51°16.673 2°52.713 8.1 283 12 103080 39
2010-05-21 07:15:59 51°16.69 2°52.699 7.6 342 12 103080 39
2010-05-21 07:16:04 51°16.707 2°52.686 8.3 280 12 103070 38
2010-05-21 07:16:09 51°16.725 2°52.673 8 342 12 103070 38
2010-05-21 07:16:14 51°16.742 2°52.66 8.1 278 12 103080 38
2010-05-21 07:16:19 51°16.759 2°52.647 7 343 12 103080 38
2010-05-21 07:16:24 51°16.776 2°52.634 8.3 281 12 103080 41
2010-05-21 07:16:29 51°16.794 2°52.621 8 341 12 103080 41
2010-05-21 07:16:34 51°16.811 2°52.607 7.4 278 12 103080 38
2010-05-21 07:16:38 51°16.824 2°52.597 7.3 342 12 103080 38
2010-05-21 07:16:44 51°16.845 2°52.581 8 284 12 103080 39
2010-05-21 07:16:49 51°16.862 2°52.567 7.7 342 12 103080 39
2010-05-21 07:16:54 51°16.879 2°52.554 7.3 284 12 103080 40
2010-05-21 07:16:59 51°16.896 2°52.54 7.6 342 12 103080 40
2010-05-21 07:17:03 51°16.91 2°52.529 7.9 283 12 103090 40
2010-05-21 07:17:09 51°16.93 2°52.512 7.6 342 12 103080 39
2010-05-21 07:17:14 51°16.947 2°52.497 7.8 283 12 103080 39
2010-05-21 07:17:18 51°16.961 2°52.487 8.1 342 12 103080 39
2010-05-21 07:17:24 51°16.982 2°52.47 7.8 283 12 103080 41
2010-05-21 07:17:29 51°16.999 2°52.457 7.4 342 12 103080 41
2010-05-21 07:17:34 51°17.016 2°52.443 8.4 283 12 103080 38
2010-05-21 07:17:39 51°17.033 2°52.43 7.7 343 12 103080 38
2010-05-21 07:17:44 51°17.05 2°52.416 8.1 283 12 103090 38
2010-05-21 07:17:49 51°17.067 2°52.403 7.8 340 12 103090 38
2010-05-21 07:17:54 51°17.084 2°52.389 7.4 341 12 103090 38
2010-05-21 07:17:59 51°17.101 2°52.376 8 341 12 103090 38
2010-05-21 07:18:04 51°17.119 2°52.363 8.2 283 12 103080 41
2010-05-21 07:18:09 51°17.136 2°52.351 7.7 341 12 103080 41
2010-05-21 07:18:14 51°17.154 2°52.34 7.7 284 12 103080 39
2010-05-21 07:18:18 51°17.169 2°52.332 8.4 340 12 103080 39
2010-05-21 07:18:24 51°17.191 2°52.32 8.4 284 12 103080 40
2010-05-21 07:18:29 51°17.209 2°52.31 8.4 340 12 103080 40
2010-05-21 07:18:34 51°17.228 2°52.301 7.6 283 12 103090 39
2010-05-21 07:18:38 51°17.242 2°52.294 7.6 339 12 103090 39
2010-05-21 07:18:44 51°17.265 2°52.285 7.9 280 12 103090 39
2010-05-21 07:18:49 51°17.283 2°52.276 8.6 340 12 103090 39
2010-05-21 07:18:54 51°17.302 2°52.269 8.5 284 12 103090 40
2010-05-21 07:18:59 51°17.321 2°52.262 8.4 340 12 103090 40
2010-05-21 07:19:03 51°17.336 2°52.256 7.9 283 12 103090 39
2010-05-21 07:19:09 51°17.359 2°52.248 8.2 338 12 103090 39
2010-05-21 07:19:14 51°17.378 2°52.241 8.3 278 12 103090 38
2010-05-21 07:19:18 51°17.393 2°52.236 7.8 338 12 103090 38
2010-05-21 07:19:24 51°17.416 2°52.228 8 278 12 103080 38
2010-05-21 07:19:29 51°17.435 2°52.222 8.7 339 12 103080 38
2010-05-21 07:19:34 51°17.454 2°52.217 8.3 279 12 103090 40
2010-05-21 07:19:39 51°17.473 2°52.212 8.8 339 12 103090 40
2010-05-21 07:19:44 51°17.492 2°52.206 8.8 284 12 103090 40
2010-05-21 07:19:49 51°17.512 2°52.201 8.2 339 12 103090 40
2010-05-21 07:19:54 51°17.531 2°52.196 8.9 281 12 103080 38
2010-05-21 07:19:59 51°17.55 2°52.191 8.4 339 12 103080 38
2010-05-21 07:20:04 51°17.57 2°52.185 7.8 278 12 103080 39
2010-05-21 07:20:09 51°17.589 2°52.18 8.1 339 12 103080 39
2010-05-21 07:20:14 51°17.608 2°52.175 8.8 278 12 103090 39
2010-05-21 07:20:19 51°17.627 2°52.17 8.6 340 12 103080 39
2010-05-21 07:20:24 51°17.646 2°52.164 8.2 279 12 103080 39
2010-05-21 07:20:29 51°17.666 2°52.16 7.7 339 12 103080 39
2010-05-21 07:20:34 51°17.685 2°52.155 8.5 282 12.1 103090 39
2010-05-21 07:20:39 51°17.704 2°52.15 8.4 337 12.1 103090 39
2010-05-21 07:20:44 51°17.724 2°52.146 8.1 281 12 103090 38
2010-05-21 07:20:49 51°17.743 2°52.142 8.3 339 12 103090 38
2010-05-21 07:20:54 51°17.762 2°52.14 8.9 -999 12 103090 40
2010-05-21 07:20:59 51°17.782 2°52.138 8.5 338 12 103090 40
2010-05-21 07:21:04 51°17.801 2°52.137 8.6 283 12 103090 38
2010-05-21 07:21:09 51°17.821 2°52.136 8.3 339 12 103090 38
2010-05-21 07:21:14 51°17.84 2°52.138 8.3 282 12 103090 38
2010-05-21 07:21:18 51°17.856 2°52.139 8.7 337 12 103090 38
2010-05-21 07:21:24 51°17.88 2°52.142 8.4 284 12 103080 38
2010-05-21 07:21:29 51°17.899 2°52.144 8.6 337 12 103090 39
2010-05-21 07:21:34 51°17.919 2°52.148 9 281 12 103090 39
2010-05-21 07:21:38 51°17.934 2°52.151 8.5 336 12 103090 39
2010-05-21 07:21:44 51°17.958 2°52.156 8.3 280 12.1 103090 40
2010-05-21 07:21:49 51°17.977 2°52.16 8.6 336 12.1 103090 40
2010-05-21 07:21:54 51°17.997 2°52.165 8 281 12.1 103090 38
2010-05-21 07:21:59 51°18.017 2°52.17 8.4 334 12.1 103090 38
2010-05-21 07:22:03 51°18.032 2°52.174 8.3 283 12.1 103090 40
2010-05-21 07:22:09 51°18.056 2°52.18 9 336 12.1 103090 40
2010-05-21 07:22:14 51°18.075 2°52.185 8.9 283 12 103100 38
2010-05-21 07:22:19 51°18.095 2°52.19 8.6 336 12 103100 38
2010-05-21 07:22:24 51°18.114 2°52.195 8.5 281 12.1 103090 38
2010-05-21 07:22:29 51°18.134 2°52.2 8.7 336 12.1 103090 38
2010-05-21 07:22:34 51°18.153 2°52.205 9.1 285 12.1 103090 40
2010-05-21 07:22:39 51°18.173 2°52.211 8.8 336 12.1 103090 38
2010-05-21 07:22:44 51°18.193 2°52.216 8.5 279 12.1 103090 38
2010-05-21 07:22:49 51°18.212 2°52.221 8.3 336 12.1 103090 38
2010-05-21 07:22:54 51°18.232 2°52.226 8.9 283 12.1 103090 38
2010-05-21 07:22:58 51°18.248 2°52.23 8.1 336 12.1 103090 38
2010-05-21 07:23:04 51°18.271 2°52.236 8.7 280 12.1 103090 40
2010-05-21 07:23:09 51°18.291 2°52.241 9 336 12.1 103090 40
2010-05-21 07:23:14 51°18.311 2°52.246 9 278 12 103090 38
2010-05-21 07:23:19 51°18.33 2°52.251 8.5 336 12 103090 38
2010-05-21 07:23:23 51°18.346 2°52.255 9.2 280 12.1 103090 38
2010-05-21 07:23:29 51°18.37 2°52.259 9 337 12 103090 38
2010-05-21 07:23:34 51°18.39 2°52.263 8.3 285 12 103090 38
2010-05-21 07:23:38 51°18.405 2°52.266 8.8 335 12 103090 38
2010-05-21 07:23:43 51°18.425 2°52.269 10 284 12.1 103090 39
2010-05-21 07:23:49 51°18.449 2°52.273 8.9 337 12.1 103090 39
2010-05-21 07:23:54 51°18.468 2°52.276 8.7 281 12.1 103100 38
2010-05-21 07:23:59 51°18.488 2°52.278 8.4 336 12.1 103100 38
2010-05-21 07:24:03 51°18.504 2°52.281 9.3 283 12.1 103090 38
2010-05-21 07:24:09 51°18.527 2°52.284 9.6 337 12.1 103090 38
2010-05-21 07:24:14 51°18.547 2°52.286 8.5 278 12 103100 38
2010-05-21 07:24:18 51°18.563 2°52.288 9.1 335 12 103100 38
2010-05-21 07:24:24 51°18.586 2°52.291 8.4 277 12 103090 40
2010-05-21 07:24:29 51°18.606 2°52.293 9.5 336 12 103090 40
2010-05-21 07:24:34 51°18.626 2°52.295 9.4 284 12 103090 39
2010-05-21 07:24:39 51°18.645 2°52.298 8.7 336 12 103090 40
2010-05-21 07:24:44 51°18.665 2°52.3 9 277 12 103090 40
2010-05-21 07:24:49 51°18.684 2°52.303 10 336 12 103090 40
2010-05-21 07:24:54 51°18.704 2°52.305 8.5 336 12 103090 38
2010-05-21 07:24:58 51°18.719 2°52.307 9.2 336 12 103090 38
2010-05-21 07:25:04 51°18.743 2°52.309 9.1 277 12 103090 40
2010-05-21 07:25:09 51°18.762 2°52.311 9.6 336 12 103090 40
2010-05-21 07:25:14 51°18.782 2°52.314 9.3 283 12 103090 38
2010-05-21 07:25:19 51°18.801 2°52.316 8 336 12 103090 38
2010-05-21 07:25:23 51°18.817 2°52.318 8.7 283 12 103090 40
2010-05-21 07:25:29 51°18.84 2°52.32 8.6 337 12 103090 40
2010-05-21 07:25:34 51°18.86 2°52.322 8.8 279 12 103090 40
2010-05-21 07:25:38 51°18.876 2°52.324 8.3 336 12 103090 40
2010-05-21 07:25:43 51°18.895 2°52.326 8.3 279 12 103090 40
2010-05-21 07:25:49 51°18.919 2°52.328 8.5 336 12 103090 40
2010-05-21 07:25:54 51°18.938 2°52.329 8.8 283 12 103090 37
2010-05-21 07:25:59 51°18.958 2°52.331 9.1 337 12 103090 37
2010-05-21 07:26:03 51°18.974 2°52.333 8.9 284 12 103090 38
2010-05-21 07:26:09 51°18.997 2°52.336 8.4 336 12 103090 39
2010-05-21 07:26:14 51°19.017 2°52.338 8.7 284 12 103090 39
2010-05-21 07:26:18 51°19.032 2°52.34 8.8 336 12 103090 39
2010-05-21 07:26:24 51°19.056 2°52.342 9.3 283 12 103100 40
2010-05-21 07:26:29 51°19.076 2°52.344 9 337 12 103100 40
2010-05-21 07:26:34 51°19.095 2°52.346 9.2 282 12 103090 38
2010-05-21 07:26:39 51°19.115 2°52.348 9.2 337 12.1 103090 40
2010-05-21 07:26:44 51°19.135 2°52.35 9.2 280 12.1 103090 40
2010-05-21 07:26:49 51°19.154 2°52.352 8.9 338 12.1 103090 40
2010-05-21 07:26:54 51°19.174 2°52.354 8.9 337 12.1 103090 40
2010-05-21 07:26:59 51°19.194 2°52.356 9 335 12.1 103090 40
2010-05-21 07:27:04 51°19.213 2°52.358 9 279 12 103090 40
2010-05-21 07:27:09 51°19.233 2°52.36 8.6 337 12 103090 40
2010-05-21 07:27:14 51°19.253 2°52.362 8.8 280 12 103090 38
2010-05-21 07:27:19 51°19.272 2°52.364 9.6 335 12 103090 38
2010-05-21 07:27:24 51°19.292 2°52.366 9 283 12.1 103100 39
2010-05-21 07:27:29 51°19.311 2°52.368 8.7 336 12.1 103100 39
2010-05-21 07:27:34 51°19.331 2°52.37 8.8 277 12.1 103090 38
2010-05-21 07:27:38 51°19.347 2°52.372 9.1 336 12.1 103090 38
2010-05-21 07:27:43 51°19.367 2°52.373 8.8 278 12.1 103100 38
2010-05-21 07:27:49 51°19.39 2°52.376 8.4 336 12.1 103100 38
2010-05-21 07:27:54 51°19.41 2°52.378 8.1 277 12 103100 40
2010-05-21 07:27:59 51°19.43 2°52.38 8.6 336 12 103100 40
2010-05-21 07:28:03 51°19.445 2°52.382 9 277 12.1 103100 40
2010-05-21 07:28:09 51°19.469 2°52.384 8.5 337 12.1 103100 40
2010-05-21 07:28:14 51°19.489 2°52.387 8.8 285 12.1 103090 40
2010-05-21 07:28:18 51°19.505 2°52.388 9.1 337 12.1 103090 40
2010-05-21 07:28:24 51°19.528 2°52.391 9.3 281 12.1 103090 39
2010-05-21 07:28:29 51°19.548 2°52.394 9.1 338 12.1 103090 39
2010-05-21 07:28:34 51°19.568 2°52.396 9 285 12.1 103090 38
2010-05-21 07:28:38 51°19.584 2°52.398 8.8 337 12.1 103090 38
2010-05-21 07:28:44 51°19.607 2°52.401 9 278 12.1 103090 38
2010-05-21 07:28:49 51°19.627 2°52.404 9.5 337 12.1 103090 38
2010-05-21 07:28:54 51°19.647 2°52.406 9.1 281 12.1 103090 39
2010-05-21 07:28:59 51°19.666 2°52.409 8.8 337 12.1 103090 39
2010-05-21 07:29:04 51°19.686 2°52.412 8.7 284 12 103090 40
2010-05-21 07:29:09 51°19.705 2°52.414 8.7 338 12 103090 40
2010-05-21 07:29:14 51°19.725 2°52.417 8.4 277 12.1 103090 38
2010-05-21 07:29:18 51°19.741 2°52.419 8.9 337 12.1 103090 38
2010-05-21 07:29:24 51°19.764 2°52.422 8.6 283 12 103100 40
2010-05-21 07:29:29 51°19.784 2°52.425 8.7 338 12 103100 40
2010-05-21 07:29:34 51°19.804 2°52.427 9.1 285 12 103090 40
2010-05-21 07:29:39 51°19.823 2°52.429 9 338 12 103090 40
2010-05-21 07:29:44 51°19.843 2°52.432 8.8 283 12 103090 40
2010-05-21 07:29:49 51°19.862 2°52.434 9.2 338 12 103090 40
2010-05-21 07:29:54 51°19.882 2°52.436 8.4 279 12 103090 40
2010-05-21 07:29:58 51°19.898 2°52.438 8.9 338 12 103090 40
2010-05-21 07:30:04 51°19.921 2°52.441 8.7 279 12.1 103100 38
2010-05-21 07:30:09 51°19.941 2°52.443 9 337 12.1 103100 38
2010-05-21 07:30:14 51°19.96 2°52.445 8.7 284 12 103090 40
2010-05-21 07:30:18 51°19.976 2°52.447 9.1 337 12 103090 40
2010-05-21 07:30:24 51°19.999 2°52.45 9.2 282 12 103090 39
2010-05-21 07:30:29 51°20.019 2°52.452 8.5 336 12 103090 39
2010-05-21 07:30:34 51°20.038 2°52.454 8.2 279 12 103090 38
2010-05-21 07:30:38 51°20.054 2°52.456 8.7 337 12 103090 38
2010-05-21 07:30:44 51°20.077 2°52.458 9.3 282 12 103090 39
2010-05-21 07:30:49 51°20.097 2°52.461 8.9 337 12 103090 39
2010-05-21 07:30:54 51°20.116 2°52.463 8.5 284 12 103090 38
2010-05-21 07:30:59 51°20.136 2°52.465 9.4 336 12 103090 38
2010-05-21 07:31:03 51°20.151 2°52.467 9.2 285 12 103090 38
2010-05-21 07:31:09 51°20.175 2°52.47 8.7 337 12 103090 38
2010-05-21 07:31:14 51°20.194 2°52.472 9.3 283 12 103090 37
2010-05-21 07:31:19 51°20.214 2°52.475 8.8 338 12 103090 37
2010-05-21 07:31:24 51°20.233 2°52.477 9.1 280 12 103100 39
2010-05-21 07:31:29 51°20.253 2°52.48 9.7 338 12 103100 39
2010-05-21 07:31:34 51°20.272 2°52.482 8.5 285 12 103090 38
2010-05-21 07:31:38 51°20.288 2°52.484 8.9 337 12 103090 38
2010-05-21 07:31:44 51°20.311 2°52.487 8.7 280 12 103090 39
2010-05-21 07:31:49 51°20.331 2°52.49 9.1 338 12 103090 39
2010-05-21 07:31:54 51°20.35 2°52.492 8.6 279 12 103100 40
2010-05-21 07:31:59 51°20.37 2°52.495 8.9 337 12 103100 40
2010-05-21 07:32:04 51°20.389 2°52.497 9.7 280 12 103090 40
2010-05-21 07:32:09 51°20.409 2°52.499 8.8 337 12 103090 40
2010-05-21 07:32:14 51°20.428 2°52.502 9 283 12 103090 38
2010-05-21 07:32:18 51°20.444 2°52.504 8.7 337 12 103090 38
2010-05-21 07:32:24 51°20.467 2°52.506 9.2 284 12 103090 39
2010-05-21 07:32:29 51°20.487 2°52.509 8.9 337 12 103090 39
2010-05-21 07:32:34 51°20.506 2°52.511 9.2 279 12 103090 40
2010-05-21 07:32:38 51°20.522 2°52.513 8.9 337 12 103090 40
2010-05-21 07:32:44 51°20.545 2°52.517 8.7 279 12 103090 40
2010-05-21 07:32:49 51°20.565 2°52.519 8.7 337 12 103090 40
2010-05-21 07:32:54 51°20.584 2°52.521 8.4 282 12 103090 39
2010-05-21 07:32:58 51°20.6 2°52.523 8.3 337 12 103090 39
2010-05-21 07:33:04 51°20.623 2°52.526 8.5 285 12 103100 40
2010-05-21 07:33:09 51°20.643 2°52.529 9.2 337 12 103100 40
2010-05-21 07:33:14 51°20.662 2°52.531 8.4 281 12 103090 38
2010-05-21 07:33:19 51°20.682 2°52.533 8.6 338 12 103090 38
2010-05-21 07:33:24 51°20.701 2°52.536 9 280 12 103090 39
2010-05-21 07:33:29 51°20.721 2°52.539 8.7 337 12 103090 39
2010-05-21 07:33:34 51°20.74 2°52.542 8.6 280 12 103100 38
2010-05-21 07:33:39 51°20.76 2°52.544 8.8 337 12 103100 38
2010-05-21 07:33:44 51°20.779 2°52.547 9.6 277 12 103100 38
2010-05-21 07:33:49 51°20.799 2°52.55 8.9 337 12 103100 38
2010-05-21 07:33:54 51°20.818 2°52.552 9.3 278 12 103100 37
2010-05-21 07:33:59 51°20.838 2°52.554 8.7 337 12 103100 40
2010-05-21 07:34:04 51°20.857 2°52.557 9.2 277 12 103100 40
2010-05-21 07:34:09 51°20.877 2°52.559 8.6 337 12 103100 40
2010-05-21 07:34:14 51°20.896 2°52.562 9.2 277 12 103100 40
2010-05-21 07:34:18 51°20.912 2°52.563 9.3 337 12 103100 40
2010-05-21 07:34:24 51°20.935 2°52.566 9.4 283 12 103100 39
2010-05-21 07:34:29 51°20.955 2°52.569 8.7 335 12 103100 39
2010-05-21 07:34:34 51°20.975 2°52.572 8.5 279 12 103100 40
2010-05-21 07:34:39 51°20.994 2°52.575 8.9 337 12 103100 40
2010-05-21 07:34:43 51°21.01 2°52.577 9.5 280 12 103100 39
2010-05-21 07:34:49 51°21.033 2°52.58 9.3 337 12 103090 40
2010-05-21 07:34:54 51°21.053 2°52.583 8.9 282 12 103090 40
2010-05-21 07:34:58 51°21.069 2°52.585 9.4 337 12 103090 40
2010-05-21 07:35:04 51°21.092 2°52.589 8.8 282 12 103100 38
2010-05-21 07:35:09 51°21.112 2°52.592 8.8 338 12 103100 38
2010-05-21 07:35:14 51°21.131 2°52.595 9.8 281 12 103100 39
2010-05-21 07:35:19 51°21.151 2°52.598 9.4 338 12 103100 39
2010-05-21 07:35:23 51°21.167 2°52.6 8.5 283 12 103100 40
2010-05-21 07:35:29 51°21.19 2°52.604 8.8 338 12 103100 40
2010-05-21 07:35:34 51°21.21 2°52.607 8.7 280 12 103090 40
2010-05-21 07:35:39 51°21.23 2°52.611 9.4 338 12 103090 40
2010-05-21 07:35:43 51°21.245 2°52.613 9.5 280 12 103110 38
2010-05-21 07:35:49 51°21.269 2°52.617 8.6 338 12 103110 38
2010-05-21 07:35:54 51°21.288 2°52.62 9.7 338 12 103090 38
2010-05-21 07:35:58 51°21.304 2°52.622 9 338 12 103090 38
2010-05-21 07:36:04 51°21.328 2°52.626 8.3 283 12 103100 39
2010-05-21 07:36:09 51°21.347 2°52.629 9 336 12 103100 39
2010-05-21 07:36:14 51°21.367 2°52.632 9.4 279 12 103090 38
2010-05-21 07:36:18 51°21.383 2°52.635 9.4 337 12 103090 38
2010-05-21 07:36:24 51°21.406 2°52.639 9.1 279 12 103090 40
2010-05-21 07:36:29 51°21.426 2°52.642 10.2 337 12 103090 40
2010-05-21 07:36:34 51°21.446 2°52.645 9.2 283 12 103100 39
2010-05-21 07:36:38 51°21.462 2°52.647 9.8 337 12 103100 39
2010-05-21 07:36:43 51°21.481 2°52.651 8.6 285 12 103100 39
2010-05-21 07:36:49 51°21.505 2°52.655 8.9 338 12 103100 39
2010-05-21 07:36:54 51°21.525 2°52.658 8 284 12 103100 40
2010-05-21 07:36:59 51°21.544 2°52.661 9 337 12 103100 40
2010-05-21 07:37:03 51°21.56 2°52.664 9 282 12 103100 40
2010-05-21 07:37:09 51°21.584 2°52.668 8.8 339 12 103100 40
2010-05-21 07:37:14 51°21.604 2°52.671 8.7 279 12 103100 40
2010-05-21 07:37:18 51°21.62 2°52.673 9.1 337 12 103100 40
2010-05-21 07:37:23 51°21.639 2°52.677 9.1 283 12 103100 38
2010-05-21 07:37:29 51°21.663 2°52.68 9.4 338 12 103100 38
2010-05-21 07:37:34 51°21.683 2°52.684 9.2 285 12 103100 39
2010-05-21 07:37:39 51°21.703 2°52.687 9 338 12 103100 40
2010-05-21 07:37:44 51°21.723 2°52.69 8.9 280 12 103100 40
2010-05-21 07:37:49 51°21.742 2°52.693 9.1 336 12 103100 40
2010-05-21 07:37:54 51°21.762 2°52.697 8.9 282 12 103100 39
2010-05-21 07:37:59 51°21.782 2°52.7 8.6 338 12 103100 39
2010-05-21 07:38:03 51°21.798 2°52.703 8.4 285 12 103100 39
2010-05-21 07:38:09 51°21.822 2°52.707 8.5 338 12 103100 39
2010-05-21 07:38:14 51°21.841 2°52.71 8.7 279 12 103100 38
2010-05-21 07:38:19 51°21.861 2°52.713 8.8 338 12 103100 38
2010-05-21 07:38:24 51°21.881 2°52.716 8.5 280 12 103100 40
2010-05-21 07:38:29 51°21.901 2°52.719 8.8 338 12 103100 40
2010-05-21 07:38:34 51°21.921 2°52.722 9.1 279 12 103100 39
2010-05-21 07:38:38 51°21.937 2°52.725 8.1 338 12 103100 39
2010-05-21 07:38:44 51°21.961 2°52.728 8.9 285 12 103100 40
2010-05-21 07:38:49 51°21.981 2°52.732 9.5 338 12 103100 40
2010-05-21 07:38:54 51°22 2°52.734 9.3 338 12 103100 40
2010-05-21 07:38:58 51°22.016 2°52.737 9 337 12 103100 40
2010-05-21 07:39:04 51°22.04 2°52.741 9.2 283 12 103100 38
2010-05-21 07:39:09 51°22.06 2°52.745 8.6 337 12 103100 38
2010-05-21 07:39:14 51°22.08 2°52.748 8.9 284 12 103100 39
2010-05-21 07:39:19 51°22.099 2°52.751 9.2 338 12 103100 39
2010-05-21 07:39:23 51°22.115 2°52.754 8.9 277 12 103100 38
2010-05-21 07:39:29 51°22.139 2°52.758 9.2 338 12 103100 38
2010-05-21 07:39:34 51°22.159 2°52.761 10.4 279 12 103100 40
2010-05-21 07:39:38 51°22.175 2°52.764 8.7 337 12 103100 40
2010-05-21 07:39:43 51°22.195 2°52.767 9.7 285 12 103100 40
2010-05-21 07:39:49 51°22.219 2°52.772 9.3 339 12 103100 40
2010-05-21 07:39:54 51°22.239 2°52.775 9.3 283 12 103100 38
2010-05-21 07:39:58 51°22.254 2°52.778 9.1 338 12 103100 38
2010-05-21 07:40:04 51°22.278 2°52.782 9.9 283 12 103100 40
2010-05-21 07:40:09 51°22.298 2°52.785 9.2 337 12 103100 40
2010-05-21 07:40:14 51°22.318 2°52.789 9.1 280 12 103100 40
2010-05-21 07:40:19 51°22.338 2°52.793 9.3 338 12 103100 40
2010-05-21 07:40:23 51°22.354 2°52.796 9 280 12 103100 40
2010-05-21 07:40:29 51°22.377 2°52.8 8.9 338 12 103100 40
2010-05-21 07:40:34 51°22.398 2°52.804 8.6 278 12 103090 40
2010-05-21 07:40:39 51°22.417 2°52.807 9.4 338 12 103090 40
2010-05-21 07:40:44 51°22.437 2°52.811 8.9 279 12 103100 39
2010-05-21 07:40:49 51°22.457 2°52.814 10.4 337 12 103100 39
2010-05-21 07:40:54 51°22.477 2°52.818 9.1 283 12 103100 39
2010-05-21 07:40:58 51°22.493 2°52.821 9.3 338 12 103100 39
2010-05-21 07:41:04 51°22.517 2°52.825 8.8 280 12 103100 38
2010-05-21 07:41:09 51°22.537 2°52.829 9 339 12 103100 38
2010-05-21 07:41:14 51°22.557 2°52.832 9.1 284 12 103090 40
2010-05-21 07:41:18 51°22.573 2°52.835 9.4 336 12 103090 40
2010-05-21 07:41:23 51°22.593 2°52.839 9.1 280 12 103090 40
2010-05-21 07:41:29 51°22.617 2°52.843 9.2 338 12 103090 40
2010-05-21 07:41:34 51°22.637 2°52.847 9.4 283 12 103100 38
2010-05-21 07:41:39 51°22.657 2°52.85 8.9 337 12 103100 38
2010-05-21 07:41:43 51°22.673 2°52.853 9.8 284 12 103100 39
2010-05-21 07:41:49 51°22.697 2°52.857 9.3 339 12 103100 38
2010-05-21 07:41:54 51°22.717 2°52.861 9.2 278 12 103100 38
2010-05-21 07:41:58 51°22.733 2°52.864 8.8 339 12 103100 38
2010-05-21 07:42:03 51°22.753 2°52.867 9.1 282 12 103100 40
2010-05-21 07:42:09 51°22.778 2°52.871 9.1 338 12 103100 40
2010-05-21 07:42:14 51°22.797 2°52.875 8.7 284 12 103090 38
2010-05-21 07:42:19 51°22.818 2°52.878 8.9 338 12 103090 38
2010-05-21 07:42:23 51°22.834 2°52.881 9.4 281 12 103100 40
2010-05-21 07:42:29 51°22.858 2°52.886 8.4 339 12 103100 40
2010-05-21 07:42:34 51°22.878 2°52.889 9.3 284 12 103100 40
2010-05-21 07:42:38 51°22.894 2°52.892 9.3 337 12 103100 40
2010-05-21 07:42:44 51°22.918 2°52.896 9.3 279 12 103090 40
2010-05-21 07:42:49 51°22.938 2°52.9 9.4 338 12 103090 40
2010-05-21 07:42:54 51°22.958 2°52.904 9 278 12 103100 39
2010-05-21 07:42:58 51°22.974 2°52.907 9.2 338 12 103100 39
2010-05-21 07:43:04 51°22.998 2°52.911 9.5 282 12 103100 38
2010-05-21 07:43:09 51°23.018 2°52.914 9.6 339 12 103100 38
2010-05-21 07:43:14 51°23.038 2°52.918 9.5 278 12 103100 40
2010-05-21 07:43:18 51°23.054 2°52.92 10 339 12 103100 40
2010-05-21 07:43:24 51°23.078 2°52.925 9.2 278 12 103100 39
2010-05-21 07:43:29 51°23.098 2°52.928 9.5 338 12 103100 39
2010-05-21 07:43:34 51°23.118 2°52.932 9.1 281 12 103090 38
2010-05-21 07:43:39 51°23.138 2°52.934 10.2 338 12 103090 38
2010-05-21 07:43:43 51°23.154 2°52.937 9.6 281 12 103100 38
2010-05-21 07:43:49 51°23.178 2°52.941 9.3 338 12 103100 39
2010-05-21 07:43:54 51°23.199 2°52.944 9 -999 12 103100 39
2010-05-21 07:43:58 51°23.214 2°52.947 9.8 339 12 103100 39
2010-05-21 07:44:03 51°23.235 2°52.95 10.3 283 12 103100 40
2010-05-21 07:44:09 51°23.259 2°52.954 9.9 339 12 103100 40
2010-05-21 07:44:14 51°23.279 2°52.958 8.8 284 12 103100 40
2010-05-21 07:44:19 51°23.299 2°52.961 8.8 339 12 103100 40
2010-05-21 07:44:23 51°23.315 2°52.964 9.6 280 12 103100 39
2010-05-21 07:44:29 51°23.339 2°52.968 9.5 339 12 103100 39
2010-05-21 07:44:34 51°23.359 2°52.972 9.4 284 12 103100 37
2010-05-21 07:44:38 51°23.375 2°52.975 9 339 12 103100 37
2010-05-21 07:44:44 51°23.4 2°52.979 9.6 282 12 103100 40
2010-05-21 07:44:49 51°23.42 2°52.982 9.1 337 12 103100 40
2010-05-21 07:44:54 51°23.44 2°52.986 8.8 338 12 103090 39
2010-05-21 07:44:59 51°23.46 2°52.99 8.7 339 12 103100 38
2010-05-21 07:45:04 51°23.48 2°52.993 9.4 282 12 103100 38
2010-05-21 07:45:09 51°23.501 2°52.997 8.8 340 12 103100 38
2010-05-21 07:45:14 51°23.521 2°53 9 280 12 103100 40
2010-05-21 07:45:18 51°23.537 2°53.003 9.2 340 12 103100 40
2010-05-21 07:45:24 51°23.561 2°53.007 9.5 282 12 103100 40
2010-05-21 07:45:29 51°23.581 2°53.011 9.5 339 12 103100 40
2010-05-21 07:45:34 51°23.601 2°53.016 8.9 279 12 103090 40
2010-05-21 07:45:39 51°23.622 2°53.019 9.5 339 12 103090 40
2010-05-21 07:45:43 51°23.638 2°53.023 9.5 279 12 103090 39
2010-05-21 07:45:49 51°23.662 2°53.028 9.1 338 12 103090 39
2010-05-21 07:45:54 51°23.682 2°53.034 10.2 -999 12 103100 40
2010-05-21 07:45:58 51°23.698 2°53.037 10.2 339 12 103100 40
2010-05-21 07:46:03 51°23.718 2°53.042 9 283 11.9 103090 38
2010-05-21 07:46:09 51°23.743 2°53.047 9.2 337 11.9 103090 38
2010-05-21 07:46:14 51°23.763 2°53.052 9.1 281 11.9 103100 39
2010-05-21 07:46:19 51°23.783 2°53.057 8.6 339 11.9 103100 39
2010-05-21 07:46:23 51°23.799 2°53.061 9.3 283 11.9 103090 38
2010-05-21 07:46:29 51°23.823 2°53.066 9.5 338 11.9 103090 38
2010-05-21 07:46:34 51°23.844 2°53.071 9.7 282 11.9 103090 38
2010-05-21 07:46:38 51°23.86 2°53.075 9.1 338 11.9 103090 38
2010-05-21 07:46:44 51°23.884 2°53.08 8.9 284 11.9 103090 40
2010-05-21 07:46:49 51°23.904 2°53.085 9.2 339 11.9 103090 40
2010-05-21 07:46:54 51°23.924 2°53.09 9.7 337 11.9 103090 40
2010-05-21 07:46:58 51°23.941 2°53.094 8.6 338 11.9 103090 39
2010-05-21 07:47:04 51°23.965 2°53.1 9 280 11.9 103090 39
2010-05-21 07:47:09 51°23.985 2°53.104 8.8 338 11.9 103090 39
2010-05-21 07:47:14 51°24.006 2°53.109 8.9 283 11.9 103100 37
2010-05-21 07:47:18 51°24.022 2°53.113 10.1 339 11.9 103100 37
2010-05-21 07:47:24 51°24.046 2°53.118 9.4 278 11.9 103100 38
2010-05-21 07:47:29 51°24.066 2°53.122 9.5 338 11.9 103100 38
2010-05-21 07:47:34 51°24.086 2°53.126 9.1 278 11.9 103100 38
2010-05-21 07:47:38 51°24.102 2°53.129 8.7 337 11.9 103100 38
2010-05-21 07:47:44 51°24.126 2°53.134 8.5 278 11.9 103100 39
2010-05-21 07:47:49 51°24.146 2°53.139 8.5 338 11.9 103100 39
2010-05-21 07:47:54 51°24.166 2°53.142 8.8 284 11.9 103100 40
2010-05-21 07:47:59 51°24.186 2°53.147 8.8 338 11.9 103100 40
2010-05-21 07:48:03 51°24.201 2°53.149 8.9 281 11.9 103090 40
2010-05-21 07:48:09 51°24.225 2°53.154 9.2 338 11.9 103100 38
2010-05-21 07:48:14 51°24.245 2°53.157 9 284 11.9 103100 38
2010-05-21 07:48:18 51°24.261 2°53.16 8.6 337 11.9 103100 38
2010-05-21 07:48:24 51°24.284 2°53.165 9.1 284 11.9 103090 38
2010-05-21 07:48:29 51°24.304 2°53.169 9.1 338 11.9 103090 38
2010-05-21 07:48:34 51°24.324 2°53.171 9.3 279 11.9 103100 38
2010-05-21 07:48:39 51°24.343 2°53.175 9 337 11.9 103100 38
2010-05-21 07:48:43 51°24.359 2°53.177 8.9 284 11.9 103100 40
2010-05-21 07:48:49 51°24.383 2°53.181 8 338 11.9 103100 40
2010-05-21 07:48:54 51°24.403 2°53.184 9.3 279 11.9 103100 38
2010-05-21 07:48:59 51°24.423 2°53.187 8.7 338 11.9 103100 38
2010-05-21 07:49:04 51°24.442 2°53.191 8.4 282 11.9 103100 40
2010-05-21 07:49:09 51°24.462 2°53.194 8.5 338 11.9 103100 40
2010-05-21 07:49:14 51°24.482 2°53.198 9.5 277 11.9 103090 40
2010-05-21 07:49:19 51°24.501 2°53.201 8.5 337 11.9 103100 40
2010-05-21 07:49:24 51°24.521 2°53.204 9.6 278 11.9 103100 40
2010-05-21 07:49:29 51°24.541 2°53.208 8.8 338 11.9 103100 40
2010-05-21 07:49:34 51°24.561 2°53.211 8.7 284 11.9 103100 40
2010-05-21 07:49:39 51°24.58 2°53.214 9.1 337 11.9 103100 40
2010-05-21 07:49:44 51°24.6 2°53.217 8.6 286 11.9 103100 39
2010-05-21 07:49:49 51°24.62 2°53.22 9.1 338 11.9 103100 39
2010-05-21 07:49:54 51°24.639 2°53.224 8.3 337 11.9 103100 38
2010-05-21 07:49:58 51°24.655 2°53.227 8.8 338 11.9 103100 38
2010-05-21 07:50:04 51°24.679 2°53.231 9.7 284 11.9 103100 39
2010-05-21 07:50:09 51°24.698 2°53.234 9 338 11.9 103100 39
2010-05-21 07:50:14 51°24.718 2°53.237 8.8 279 11.9 103100 40
2010-05-21 07:50:19 51°24.737 2°53.241 9.1 338 11.9 103100 40
2010-05-21 07:50:23 51°24.753 2°53.244 8.7 284 11.9 103100 40
2010-05-21 07:50:29 51°24.777 2°53.248 10 338 11.9 103100 40
2010-05-21 07:50:34 51°24.796 2°53.252 9.3 281 11.9 103100 40
2010-05-21 07:50:38 51°24.812 2°53.254 9.6 338 11.9 103100 40
2010-05-21 07:50:43 51°24.832 2°53.258 9.1 278 11.9 103100 38
2010-05-21 07:50:49 51°24.855 2°53.262 9.2 337 11.9 103100 38
2010-05-21 07:50:54 51°24.875 2°53.265 9.5 338 11.9 103100 39
2010-05-21 07:50:58 51°24.891 2°53.268 9 337 11.9 103100 39
2010-05-21 07:51:04 51°24.915 2°53.272 9.7 284 11.8 103100 40
2010-05-21 07:51:09 51°24.934 2°53.276 8.7 337 11.8 103100 40
2010-05-21 07:51:14 51°24.954 2°53.279 8.6 282 11.9 103100 40
2010-05-21 07:51:19 51°24.974 2°53.282 8.7 337 11.9 103100 40
2010-05-21 07:51:23 51°24.99 2°53.284 9.1 278 11.8 103100 40
2010-05-21 07:51:29 51°25.013 2°53.288 8.8 337 11.8 103100 40
2010-05-21 07:51:34 51°25.033 2°53.291 9.2 279 11.8 103100 38
2010-05-21 07:51:39 51°25.053 2°53.295 8.5 338 11.8 103100 38
2010-05-21 07:51:44 51°25.073 2°53.297 8.1 282 11.9 103100 40
2010-05-21 07:51:49 51°25.092 2°53.301 9.3 338 11.9 103100 40
2010-05-21 07:51:54 51°25.112 2°53.303 9.2 337 11.8 103100 40
2010-05-21 07:51:58 51°25.128 2°53.306 8.7 337 11.8 103100 40
2010-05-21 07:52:04 51°25.152 2°53.309 9 278 11.8 103100 39
2010-05-21 07:52:09 51°25.171 2°53.313 8.8 338 11.8 103100 39
2010-05-21 07:52:14 51°25.191 2°53.316 8.6 281 11.9 103110 38
2010-05-21 07:52:18 51°25.207 2°53.319 8 339 11.9 103110 38
2010-05-21 07:52:24 51°25.23 2°53.323 9 285 11.8 103110 38
2010-05-21 07:52:29 51°25.25 2°53.326 9.5 338 11.8 103110 38
2010-05-21 07:52:34 51°25.27 2°53.329 8.8 283 11.8 103100 39
2010-05-21 07:52:38 51°25.286 2°53.332 8.7 337 11.8 103100 39
2010-05-21 07:52:43 51°25.305 2°53.335 9.5 282 11.9 103110 38
2010-05-21 07:52:49 51°25.329 2°53.339 8.2 337 11.9 103110 38
2010-05-21 07:52:54 51°25.348 2°53.342 8.6 338 11.9 103100 39
2010-05-21 07:52:58 51°25.364 2°53.345 9.4 338 11.9 103100 39
2010-05-21 07:53:04 51°25.388 2°53.348 8.9 284 11.9 103100 39
2010-05-21 07:53:09 51°25.408 2°53.351 8.8 338 11.9 103100 39
2010-05-21 07:53:14 51°25.427 2°53.355 8.8 286 11.9 103100 39
2010-05-21 07:53:19 51°25.447 2°53.358 9.4 338 11.9 103100 39
2010-05-21 07:53:23 51°25.463 2°53.361 9.9 283 11.8 103100 40
2010-05-21 07:53:29 51°25.486 2°53.365 9.3 337 11.8 103100 40
2010-05-21 07:53:34 51°25.506 2°53.368 9.4 283 11.9 103110 38
2010-05-21 07:53:39 51°25.526 2°53.371 8.8 337 11.9 103110 38
2010-05-21 07:53:44 51°25.546 2°53.375 8.7 282 11.9 103110 40
2010-05-21 07:53:49 51°25.566 2°53.379 9.2 337 11.9 103110 40
2010-05-21 07:53:54 51°25.586 2°53.382 8.2 338 11.9 103110 38
2010-05-21 07:53:59 51°25.605 2°53.387 8.5 337 11.9 103110 38
2010-05-21 07:54:04 51°25.625 2°53.39 8.4 281 11.9 103100 39
2010-05-21 07:54:09 51°25.645 2°53.394 8.5 337 11.9 103100 39
2010-05-21 07:54:14 51°25.665 2°53.398 9.6 281 11.8 103110 39
2010-05-21 07:54:18 51°25.681 2°53.401 8.7 337 11.8 103110 39
2010-05-21 07:54:24 51°25.705 2°53.405 8.1 282 11.9 103110 40
2010-05-21 07:54:29 51°25.725 2°53.409 8.5 337 11.9 103110 40
2010-05-21 07:54:34 51°25.746 2°53.412 9.1 281 11.9 103110 39
2010-05-21 07:54:39 51°25.766 2°53.416 8.5 337 11.9 103110 39
2010-05-21 07:54:43 51°25.782 2°53.418 8.7 281 11.9 103110 40
2010-05-21 07:54:49 51°25.806 2°53.422 9 336 11.9 103110 40
2010-05-21 07:54:54 51°25.826 2°53.425 8.7 337 11.8 103110 38
2010-05-21 07:54:58 51°25.842 2°53.429 8.7 337 11.8 103110 38
2010-05-21 07:55:04 51°25.866 2°53.433 9 277 11.8 103100 39
2010-05-21 07:55:09 51°25.886 2°53.438 8.9 338 11.8 103100 39
2010-05-21 07:55:14 51°25.906 2°53.442 8.1 282 11.9 103110 38
2010-05-21 07:55:19 51°25.926 2°53.446 8.8 337 11.9 103110 38
2010-05-21 07:55:23 51°25.942 2°53.449 8.4 277 11.9 103120 40
2010-05-21 07:55:29 51°25.966 2°53.454 9.3 338 11.9 103120 40
2010-05-21 07:55:34 51°25.986 2°53.457 8.4 282 11.8 103110 40
2010-05-21 07:55:39 51°26.007 2°53.461 8.7 337 11.8 103110 40
2010-05-21 07:55:44 51°26.027 2°53.465 8.9 283 11.9 103110 39
2010-05-21 07:55:49 51°26.047 2°53.469 8.8 337 11.9 103110 39
2010-05-21 07:55:54 51°26.067 2°53.473 7.7 337 11.9 103110 38
2010-05-21 07:55:59 51°26.087 2°53.476 8.6 338 11.9 103110 38
2010-05-21 07:56:04 51°26.107 2°53.481 8.4 283 11.9 103110 39
2010-05-21 07:56:09 51°26.127 2°53.484 8.7 336 11.9 103110 39
2010-05-21 07:56:14 51°26.147 2°53.489 8.9 284 11.9 103110 40
2010-05-21 07:56:19 51°26.167 2°53.492 8.4 338 11.9 103110 40
2010-05-21 07:56:24 51°26.187 2°53.496 8.3 280 11.9 103110 40
2010-05-21 07:56:29 51°26.207 2°53.499 9.2 336 11.9 103110 40
2010-05-21 07:56:34 51°26.227 2°53.503 8.6 281 11.9 103110 39
2010-05-21 07:56:39 51°26.247 2°53.507 8.8 336 11.9 103110 39
2010-05-21 07:56:44 51°26.267 2°53.511 8.6 279 11.9 103110 40
2010-05-21 07:56:49 51°26.287 2°53.514 8.6 336 11.9 103110 40
2010-05-21 07:56:54 51°26.307 2°53.519 8.2 337 11.9 103110 38
2010-05-21 07:56:58 51°26.323 2°53.522 9.4 337 11.9 103110 38
2010-05-21 07:57:04 51°26.347 2°53.528 9.1 279 11.9 103110 40
2010-05-21 07:57:09 51°26.367 2°53.531 8.8 338 11.9 103110 40
2010-05-21 07:57:14 51°26.387 2°53.535 9.1 284 11.9 103110 38
2010-05-21 07:57:18 51°26.403 2°53.538 8.6 337 11.9 103110 38
2010-05-21 07:57:23 51°26.423 2°53.542 9.3 283 11.9 103110 39
2010-05-21 07:57:29 51°26.447 2°53.547 9.3 337 11.9 103110 39
2010-05-21 07:57:34 51°26.466 2°53.551 8.3 277 11.9 103110 40
2010-05-21 07:57:39 51°26.486 2°53.555 8.9 338 11.9 103110 40
2010-05-21 07:57:43 51°26.502 2°53.558 9.1 281 11.9 103110 40
2010-05-21 07:57:49 51°26.526 2°53.562 8.9 336 11.9 103110 40
2010-05-21 07:57:54 51°26.546 2°53.566 8.6 337 11.9 103110 37
2010-05-21 07:57:58 51°26.562 2°53.569 8.8 337 11.9 103110 37
2010-05-21 07:58:04 51°26.586 2°53.574 8.8 282 11.9 103110 39
2010-05-21 07:58:09 51°26.606 2°53.578 9.2 338 11.9 103110 39
2010-05-21 07:58:14 51°26.626 2°53.582 8.4 283 11.9 103110 38
2010-05-21 07:58:19 51°26.646 2°53.586 8.6 337 11.9 103110 38
2010-05-21 07:58:24 51°26.666 2°53.589 9.4 279 11.9 103110 40
2010-05-21 07:58:29 51°26.686 2°53.593 9.3 337 11.9 103110 40
2010-05-21 07:58:34 51°26.706 2°53.597 9.6 278 11.9 103120 39
2010-05-21 07:58:38 51°26.722 2°53.6 8.7 337 11.9 103120 39
2010-05-21 07:58:44 51°26.746 2°53.605 8.4 281 11.9 103120 39
2010-05-21 07:58:49 51°26.766 2°53.609 8.5 338 11.9 103120 39
2010-05-21 07:58:54 51°26.786 2°53.613 8.8 338 11.9 103110 40
2010-05-21 07:58:58 51°26.802 2°53.617 9.3 338 11.9 103110 40
2010-05-21 07:59:04 51°26.826 2°53.621 9 282 11.9 103110 40
2010-05-21 07:59:09 51°26.846 2°53.625 9.1 338 11.9 103110 40
2010-05-21 07:59:14 51°26.866 2°53.629 9.4 282 11.9 103110 38
2010-05-21 07:59:19 51°26.886 2°53.633 8 337 11.9 103110 38
2010-05-21 07:59:23 51°26.902 2°53.636 9.2 283 11.9 103110 40
2010-05-21 07:59:29 51°26.926 2°53.641 9.3 337 11.9 103110 40
2010-05-21 07:59:34 51°26.947 2°53.645 8.7 283 11.9 103110 40
2010-05-21 07:59:38 51°26.963 2°53.648 9.7 338 11.9 103110 40
2010-05-21 07:59:44 51°26.987 2°53.653 8.9 283 11.9 103110 38
2010-05-21 07:59:49 51°27.007 2°53.657 8.9 337 11.9 103110 38
2010-05-21 07:59:54 51°27.027 2°53.661 8.7 337 11.9 103110 41
2010-05-21 07:59:59 51°27.047 2°53.666 8.3 337 11.9 103110 41
2010-05-21 08:00:03 51°27.063 2°53.669 9 278 11.9 103110 40
2010-05-21 08:00:09 51°27.087 2°53.674 9 338 11.9 103110 40
2010-05-21 08:00:14 51°27.107 2°53.679 9.1 284 11.9 103110 40
2010-05-21 08:00:19 51°27.127 2°53.683 9 338 11.9 103110 40
2010-05-21 08:00:24 51°27.147 2°53.687 8.6 280 11.9 103110 39
2010-05-21 08:00:29 51°27.167 2°53.691 9.1 338 11.9 103110 39
2010-05-21 08:00:34 51°27.188 2°53.696 8.4 284 11.9 103110 39
2010-05-21 08:00:39 51°27.208 2°53.7 8.6 337 11.9 103110 39
2010-05-21 08:00:44 51°27.228 2°53.704 8.8 284 11.9 103110 38
2010-05-21 08:00:49 51°27.248 2°53.708 9.3 338 11.9 103110 38
2010-05-21 08:00:54 51°27.268 2°53.712 9.4 338 11.9 103110 39
2010-05-21 08:00:58 51°27.284 2°53.715 9.2 339 11.9 103110 39
2010-05-21 08:01:04 51°27.308 2°53.72 8.4 282 11.9 103110 39
2010-05-21 08:01:09 51°27.328 2°53.724 8.5 337 11.9 103110 39
2010-05-21 08:01:14 51°27.348 2°53.728 8.4 277 11.9 103110 39
2010-05-21 08:01:19 51°27.369 2°53.732 8.7 339 11.9 103110 39
2010-05-21 08:01:23 51°27.385 2°53.735 9.2 285 11.9 103110 40
2010-05-21 08:01:29 51°27.409 2°53.739 8.9 337 11.9 103110 40
2010-05-21 08:01:34 51°27.429 2°53.743 8.4 285 11.9 103110 40
2010-05-21 08:01:38 51°27.445 2°53.747 9.6 337 11.9 103110 40
2010-05-21 08:01:44 51°27.469 2°53.751 8.7 280 11.9 103110 38
2010-05-21 08:01:49 51°27.489 2°53.755 8.5 338 11.9 103110 38
2010-05-21 08:01:54 51°27.509 2°53.758 8.7 337 11.9 103110 40
2010-05-21 08:01:59 51°27.529 2°53.763 8.5 337 11.9 103110 40
2010-05-21 08:02:03 51°27.546 2°53.766 8.8 284 11.9 103120 40
2010-05-21 08:02:09 51°27.569 2°53.771 7.9 338 11.9 103120 40
2010-05-21 08:02:14 51°27.59 2°53.775 8.8 279 11.9 103110 38
2010-05-21 08:02:19 51°27.61 2°53.779 8.9 338 11.9 103110 38
2010-05-21 08:02:24 51°27.63 2°53.782 8.3 282 11.9 103120 38
2010-05-21 08:02:29 51°27.65 2°53.787 8.4 337 11.9 103120 38
2010-05-21 08:02:34 51°27.67 2°53.79 8.2 281 11.9 103110 38
2010-05-21 08:02:38 51°27.686 2°53.794 8.8 336 11.9 103110 38
2010-05-21 08:02:44 51°27.71 2°53.798 8.3 284 11.9 103110 38
2010-05-21 08:02:49 51°27.73 2°53.802 8.9 336 11.9 103110 38
2010-05-21 08:02:54 51°27.75 2°53.806 8 337 11.9 103110 39
2010-05-21 08:02:58 51°27.766 2°53.809 9.2 336 11.9 103110 39
2010-05-21 08:03:04 51°27.791 2°53.813 8.1 284 11.9 103110 38
2010-05-21 08:03:09 51°27.811 2°53.817 9.2 338 11.9 103110 38
2010-05-21 08:03:14 51°27.831 2°53.821 9.1 283 11.9 103110 38
2010-05-21 08:03:18 51°27.847 2°53.823 8.8 336 11.9 103110 38
2010-05-21 08:03:24 51°27.871 2°53.828 8.6 280 11.8 103110 40
2010-05-21 08:03:29 51°27.891 2°53.832 9.5 336 11.8 103110 40
2010-05-21 08:03:34 51°27.911 2°53.835 8.6 280 11.8 103110 38
2010-05-21 08:03:38 51°27.927 2°53.839 9.1 335 11.8 103110 38
2010-05-21 08:03:44 51°27.952 2°53.843 9.1 284 11.9 103110 40
2010-05-21 08:03:49 51°27.972 2°53.847 9.1 337 11.9 103110 40
2010-05-21 08:03:54 51°27.992 2°53.851 9.1 336 11.8 103120 38
2010-05-21 08:03:58 51°28.008 2°53.854 8.2 337 11.8 103120 38
2010-05-21 08:04:03 51°28.028 2°53.859 8.3 277 11.8 103110 39
2010-05-21 08:04:09 51°28.052 2°53.863 8.3 337 11.8 103110 39
2010-05-21 08:04:14 51°28.073 2°53.867 9.1 278 11.9 103110 39
2010-05-21 08:04:19 51°28.093 2°53.871 9.1 337 11.9 103110 39
2010-05-21 08:04:23 51°28.109 2°53.873 8.3 279 11.8 103100 39
2010-05-21 08:04:29 51°28.133 2°53.878 8.8 337 11.8 103100 39
2010-05-21 08:04:34 51°28.153 2°53.881 8.6 283 11.8 103110 38
2010-05-21 08:04:38 51°28.17 2°53.884 8.3 337 11.8 103110 38
2010-05-21 08:04:44 51°28.194 2°53.888 8.4 283 11.8 103110 39
2010-05-21 08:04:49 51°28.214 2°53.892 8.7 338 11.8 103110 39
2010-05-21 08:04:54 51°28.234 2°53.895 8.9 337 11.8 103120 40
2010-05-21 08:04:58 51°28.25 2°53.898 8.6 337 11.8 103120 40
2010-05-21 08:05:04 51°28.274 2°53.902 8.8 278 11.8 103110 40
2010-05-21 08:05:09 51°28.294 2°53.906 8.7 337 11.8 103110 40
2010-05-21 08:05:14 51°28.314 2°53.91 8.7 284 11.8 103120 38
2010-05-21 08:05:19 51°28.334 2°53.915 8.9 337 11.8 103120 38
2010-05-21 08:05:23 51°28.35 2°53.918 8.7 284 11.8 103110 38
2010-05-21 08:05:29 51°28.375 2°53.923 8.5 339 11.8 103110 38
2010-05-21 08:05:34 51°28.395 2°53.927 9 280 11.8 103110 40
2010-05-21 08:05:38 51°28.411 2°53.93 8.8 337 11.8 103110 40
2010-05-21 08:05:44 51°28.435 2°53.935 9.1 279 11.8 103120 38
2010-05-21 08:05:49 51°28.455 2°53.938 9 338 11.8 103120 38
2010-05-21 08:05:54 51°28.476 2°53.942 8.8 336 11.8 103110 37
2010-05-21 08:05:58 51°28.492 2°53.945 9.5 338 11.8 103110 37
2010-05-21 08:06:03 51°28.512 2°53.949 8.7 277 11.8 103120 38
2010-05-21 08:06:09 51°28.536 2°53.953 8.8 338 11.8 103120 38
2010-05-21 08:06:14 51°28.556 2°53.957 9 284 11.8 103110 39
2010-05-21 08:06:19 51°28.576 2°53.961 9 337 11.8 103110 39
2010-05-21 08:06:23 51°28.592 2°53.965 9.5 282 11.8 103110 40
2010-05-21 08:06:29 51°28.616 2°53.97 8.9 338 11.8 103110 40
2010-05-21 08:06:34 51°28.636 2°53.974 9.3 282 11.8 103120 38
2010-05-21 08:06:39 51°28.657 2°53.978 9.8 338 11.8 103120 38
2010-05-21 08:06:43 51°28.673 2°53.98 8.5 284 11.8 103110 38
2010-05-21 08:06:49 51°28.697 2°53.985 9.3 338 11.8 103110 38
2010-05-21 08:06:54 51°28.717 2°53.989 9.1 339 11.8 103120 40
2010-05-21 08:06:58 51°28.733 2°53.992 9.9 336 11.8 103120 40
2010-05-21 08:07:03 51°28.753 2°53.996 8.9 279 11.8 103120 38
2010-05-21 08:07:09 51°28.777 2°54 8.8 338 11.8 103120 38
2010-05-21 08:07:14 51°28.797 2°54.003 9.1 280 11.8 103110 38
2010-05-21 08:07:19 51°28.817 2°54.008 9.3 337 11.8 103110 38
2010-05-21 08:07:23 51°28.833 2°54.01 9 285 11.8 103110 40
2010-05-21 08:07:29 51°28.857 2°54.015 9 338 11.8 103110 40
2010-05-21 08:07:34 51°28.878 2°54.018 9.4 283 11.8 103120 38
2010-05-21 08:07:38 51°28.893 2°54.021 9.2 338 11.8 103120 38
2010-05-21 08:07:43 51°28.913 2°54.025 9.6 281 11.8 103120 39
2010-05-21 08:07:49 51°28.937 2°54.03 9.1 339 11.8 103120 39
2010-05-21 08:07:54 51°28.957 2°54.034 10 339 11.8 103120 40
2010-05-21 08:07:58 51°28.973 2°54.037 9.6 339 11.8 103120 40
2010-05-21 08:08:03 51°28.993 2°54.041 10.3 278 11.8 103110 39
2010-05-21 08:08:09 51°29.017 2°54.045 8.9 338 11.8 103110 39
2010-05-21 08:08:13 51°29.033 2°54.048 9 279 11.8 103120 40
2010-05-21 08:08:18 51°29.053 2°54.051 9.4 338 11.8 103120 40
2010-05-21 08:08:23 51°29.073 2°54.055 8.8 280 11.7 103120 40
2010-05-21 08:08:29 51°29.097 2°54.06 8.9 339 11.7 103120 40
2010-05-21 08:08:34 51°29.117 2°54.064 8.9 279 11.7 103110 38
2010-05-21 08:08:38 51°29.133 2°54.067 9.4 337 11.7 103110 38
2010-05-21 08:08:43 51°29.153 2°54.071 8.7 281 11.7 103120 40
2010-05-21 08:08:48 51°29.172 2°54.074 9.2 338 11.7 103120 40
2010-05-21 08:08:54 51°29.196 2°54.079 9.7 338 11.7 103120 40
2010-05-21 08:08:58 51°29.212 2°54.081 8.9 337 11.7 103120 40
2010-05-21 08:09:03 51°29.232 2°54.085 9.5 283 11.8 103120 38
2010-05-21 08:09:09 51°29.256 2°54.09 9.2 340 11.8 103120 38
2010-05-21 08:09:14 51°29.275 2°54.094 8.5 282 11.7 103120 39
2010-05-21 08:09:18 51°29.291 2°54.097 8.9 339 11.7 103120 39
2010-05-21 08:09:23 51°29.311 2°54.102 8.8 280 11.7 103110 39
2010-05-21 08:09:29 51°29.335 2°54.106 8.6 339 11.7 103110 39
2010-05-21 08:09:33 51°29.351 2°54.11 8.7 283 11.7 103120 40
2010-05-21 08:09:38 51°29.371 2°54.114 8.6 337 11.7 103120 40
2010-05-21 08:09:43 51°29.391 2°54.119 8.6 282 11.7 103120 38
2010-05-21 08:09:49 51°29.415 2°54.124 9.2 338 11.7 103120 38
2010-05-21 08:09:54 51°29.435 2°54.129 8.9 336 11.7 103120 38
2010-05-21 08:09:58 51°29.451 2°54.132 8.9 337 11.7 103120 38
2010-05-21 08:10:03 51°29.471 2°54.137 8.2 283 11.8 103120 38
2010-05-21 08:10:08 51°29.491 2°54.142 7.8 338 11.8 103120 38
2010-05-21 08:10:14 51°29.515 2°54.147 8.6 282 11.8 103130 40
2010-05-21 08:10:18 51°29.531 2°54.151 7.9 336 11.8 103130 40
2010-05-21 08:10:23 51°29.55 2°54.155 8.8 281 11.8 103120 39
2010-05-21 08:10:29 51°29.575 2°54.161 8.7 337 11.8 103120 39
2010-05-21 08:10:34 51°29.595 2°54.165 8.4 280 11.8 103120 38
2010-05-21 08:10:38 51°29.611 2°54.169 8.5 338 11.8 103120 38
2010-05-21 08:10:42 51°29.627 2°54.172 8.3 279 11.8 103120 40
2010-05-21 08:10:49 51°29.655 2°54.178 8 338 11.8 103120 40
2010-05-21 08:10:54 51°29.675 2°54.183 8.1 338 11.8 103120 39
2010-05-21 08:10:58 51°29.691 2°54.186 8.4 337 11.8 103120 39
2010-05-21 08:11:03 51°29.711 2°54.191 8.5 284 11.8 103120 39
2010-05-21 08:11:08 51°29.731 2°54.195 8.3 338 11.8 103120 39
2010-05-21 08:11:14 51°29.755 2°54.202 8.8 285 11.8 103120 37
2010-05-21 08:11:18 51°29.772 2°54.206 8.1 337 11.8 103120 37
2010-05-21 08:11:23 51°29.792 2°54.211 8.4 283 11.8 103120 40
2010-05-21 08:11:28 51°29.812 2°54.216 8.8 338 11.8 103120 40
2010-05-21 08:11:34 51°29.837 2°54.221 8.9 279 11.8 103120 40
2010-05-21 08:11:38 51°29.853 2°54.225 8.7 338 11.8 103120 40
2010-05-21 08:11:43 51°29.873 2°54.229 8.9 284 11.8 103120 38
2010-05-21 08:11:49 51°29.898 2°54.235 9.5 337 11.8 103120 38
2010-05-21 08:11:54 51°29.918 2°54.24 8.7 337 11.8 103120 39
2010-05-21 08:11:58 51°29.934 2°54.244 8.3 336 11.8 103120 39
2010-05-21 08:12:03 51°29.954 2°54.249 9.5 284 11.8 103120 41
2010-05-21 08:12:09 51°29.979 2°54.255 8.7 337 11.8 103120 41
2010-05-21 08:12:13 51°29.995 2°54.259 8.6 282 11.8 103120 40
2010-05-21 08:12:18 51°30.015 2°54.264 9 338 11.8 103120 40
2010-05-21 08:12:23 51°30.035 2°54.268 9.2 284 11.8 103120 40
2010-05-21 08:12:29 51°30.06 2°54.274 9.1 337 11.8 103120 40
2010-05-21 08:12:34 51°30.08 2°54.279 8.9 281 11.8 103120 38
2010-05-21 08:12:38 51°30.096 2°54.282 9 339 11.8 103120 38
2010-05-21 08:12:43 51°30.116 2°54.287 8.8 283 11.8 103120 39
2010-05-21 08:12:49 51°30.141 2°54.292 9 338 11.8 103120 39
2010-05-21 08:12:54 51°30.161 2°54.297 9.2 338 11.8 103120 40
2010-05-21 08:12:58 51°30.177 2°54.301 9.7 337 11.8 103120 40
2010-05-21 08:13:03 51°30.197 2°54.306 9 285 11.8 103120 38
2010-05-21 08:13:09 51°30.222 2°54.312 8.6 337 11.8 103120 38
2010-05-21 08:13:14 51°30.242 2°54.316 9.3 283 11.8 103110 39
2010-05-21 08:13:18 51°30.258 2°54.32 8.5 338 11.8 103110 39
2010-05-21 08:13:23 51°30.278 2°54.324 9.2 284 11.8 103120 39
2010-05-21 08:13:28 51°30.298 2°54.33 8 337 11.8 103120 39
2010-05-21 08:13:35 51°30.327 2°54.335 9.9 278 11.8 103120 38
2010-05-21 08:13:39 51°30.342 2°54.341 8.9 335 11.8 103120 38
2010-05-21 08:13:44 51°30.363 2°54.343 9.3 283 11.8 103120 38
2010-05-21 08:13:49 51°30.383 2°54.35 8.6 337 11.8 103120 38
2010-05-21 08:13:54 51°30.403 2°54.353 9.1 335 11.7 103120 39
2010-05-21 08:13:59 51°30.423 2°54.359 9.1 337 11.7 103120 39
2010-05-21 08:14:04 51°30.443 2°54.363 9.4 285 11.7 103120 38
2010-05-21 08:14:09 51°30.464 2°54.368 8.6 338 11.7 103120 38
2010-05-21 08:14:14 51°30.484 2°54.373 9.5 279 11.7 103120 40
2010-05-21 08:14:19 51°30.504 2°54.378 9.3 338 11.7 103120 40
2010-05-21 08:14:23 51°30.52 2°54.382 9.6 282 11.7 103120 38
2010-05-21 08:14:29 51°30.544 2°54.388 9.1 338 11.7 103120 38
2010-05-21 08:14:34 51°30.564 2°54.393 9.4 278 11.7 103120 40
2010-05-21 08:14:39 51°30.585 2°54.397 8.8 338 11.7 103120 40
2010-05-21 08:14:44 51°30.605 2°54.402 8.9 284 11.7 103120 39
2010-05-21 08:14:49 51°30.625 2°54.407 9 338 11.7 103120 39
2010-05-21 08:14:54 51°30.645 2°54.411 9.3 336 11.7 103120 38
2010-05-21 08:14:59 51°30.666 2°54.416 8.8 338 11.7 103120 38
2010-05-21 08:15:03 51°30.682 2°54.42 9 279 11.7 103120 38
2010-05-21 08:15:08 51°30.702 2°54.424 8.8 339 11.7 103120 38
2010-05-21 08:15:14 51°30.726 2°54.43 9.4 283 11.7 103120 38
2010-05-21 08:15:19 51°30.746 2°54.435 9 337 11.7 103120 38
2010-05-21 08:15:23 51°30.762 2°54.438 9.6 279 11.7 103120 40
2010-05-21 08:15:29 51°30.787 2°54.444 9.6 338 11.7 103120 40
2010-05-21 08:15:33 51°30.803 2°54.448 8.7 282 11.7 103110 38
2010-05-21 08:15:39 51°30.827 2°54.453 8.7 338 11.7 103110 38
2010-05-21 08:15:44 51°30.848 2°54.457 9.1 279 11.7 103120 38
2010-05-21 08:15:48 51°30.864 2°54.461 9.1 337 11.7 103120 38
2010-05-21 08:15:53 51°30.884 2°54.465 9 338 11.7 103120 40
2010-05-21 08:15:59 51°30.909 2°54.47 8.5 336 11.7 103120 40
2010-05-21 08:16:03 51°30.925 2°54.473 8.3 278 11.7 103110 40